EHI
3 3 3 3 3 3 2 1 2 2 1 0 0 0 0 1 2 4 3 2 1 2 2 2 1 0 1 2 2 1 0 1 2 1 1 1 1 1 3 5 5 3 3
3 3 3 3 3 2 1 0 1 1 0 0 0 0 0 0 1 2 2 1 1 1 1 2 2 1 0 1 1 0 0 1 2 1 1 1 0 0 2 4 5 4 4
3 3 3 3 3 1 0 0 0 0 0 1 1 0 0 0 0 1 1 1 0 0 1 1 2 2 1 0 0 0 0 1 1 1 1 0 0 0 1 2 4 5 5
4 4 3 3 2 1 0 0 0 0 1 2 2 1 0 0 0 1 2 1 0 0 1 1 2 3 3 1 0 0 1 1 1 1 0 0 0 0 0 2 3 4 4
5 4 4 3 2 1 1 1 2 1 1 3 2 1 0 0 1 1 2 2 1 1 1 2 2 3 3 2 1 1 1 0 0 0 0 0 0 0 0 1 3 3 3
4 4 3 3 2 1 1 2 3 3 2 2 2 1 0 0 1 1 2 2 1 1 1 1 1 1 2 2 1 1 1 0 0 0 0 0 0 0 0 1 2 2 2
3 3 3 3 2 1 1 2 2 3 2 1 1 0 0 0 1 1 1 1 1 2 2 1 0 0 1 1 1 2 1 0 0 0 0 0 0 0 0 0 1 1 1
3 3 3 2 2 1 0 1 1 1 1 1 0 0 0 0 0 1 0 0 1 2 2 2 1 1 1 1 1 2 1 0 0 0 0 0 1 0 0 0 0 0 0
3 3 2 1 1 0 0 0 0 0 0 0 0 0 0 0 0 0 0 0 0 1 1 2 3 2 2 2 3 2 1 0 0 0 0 0 0 0 0 0 0 0 0
3 3 3 2 1 0 0 0 0 0 0 0 0 0 1 0 0 0 0 0 0 0 1 2 3 3 2 2 3 3 2 0 0 0 0 0 0 0 0 0 0 0 0
2 3 3 2 1 0 0 0 0 0 0 0 0 0 0 0 0 0 0 0 0 0 1 2 3 1 1 1 1 2 2 0 0 0 0 1 1 0 0 0 0 0 0
1 1 3 2 1 0 0 0 0 0 0 0 0 0 0 0 0 0 0 0 0 0 1 2 2 1 0 0 1 2 1 0 0 0 1 2 2 1 0 0 0 0 0
0 1 3 2 1 0 0 0 0 0 0 0 0 0 0 0 0 0 0 0 0 0 0 1 1 0 0 0 0 1 1 0 0 0 1 2 3 1 0 0 0 0 0
1 2 3 2 2 2 1 0 0 0 0 0 0 0 0 0 0 0 0 0 0 0 0 0 0 0 0 0 0 0 0 0 0 0 1 2 3 2 0 0 0 0 0
3 3 3 2 2 3 2 1 0 0 0 0 0 0 0 1 0 0 0 0 0 0 0 0 0 0 0 0 0 0 0 0 0 0 0 1 2 1 0 0 0 0 0
4 5 4 3 2 3 2 1 0 0 1 1 1 1 0 0 0 0 0 0 0 0 0 0 0 0 0 0 0 0 0 0 0 0 0 0 0 0 0 0 0 0 0
6 6 5 3 2 3 2 1 1 1 2 2 2 1 0 0 0 0 0 0 0 0 0 0 0 0 0 0 0 0 0 0 0 0 0 0 0 0 0 0 0 0 0
7 7 5 3 2 1 1 1 2 2 2 2 1 1 0 0 0 0 0 0 0 0 0 0 0 0 0 0 0 0 0 0 0 0 0 0 0 0 0 0 0 0 0
6 6 4 2 1 0 0 1 1 1 1 1 0 0 0 0 0 0 0 0 0 0 0 1 1 0 0 0 0 0 0 0 0 0 0 0 0 0 0 0 0 0 0
3 3 3 1 0 0 0 0 0 0 0 0 0 0 0 0 0 0 0 1 1 2 2 2 2 1 0 0 0 0 0 0 0 0 0 0 0 0 0 0 0 0 0
1 2 2 1 0 0 0 0 1 1 0 0 0 0 0 0 0 0 1 2 3 3 3 3 3 1 0 0 0 0 0 0 0 0 0 0 0 0 0 0 0 0 0
1 1 2 1 0 0 0 1 2 2 2 1 1 1 0 0 0 0 1 2 3 3 3 3 3 2 1 0 0 0 0 0 0 0 0 0 0 0 0 0 0 0 0
2 2 1 1 0 0 1 3 4 5 4 3 2 2 1 0 0 0 1 1 3 3 3 3 3 2 1 0 0 0 0 0 0 0 0 0 0 0 0 0 0 0 0
2 1 0 0 0 1 3 6 7 6 6 5 4 4 3 1 0 0 0 1 3 3 3 3 3 2 1 0 0 0 0 0 0 0 0 0 0 0 0 0 0 0 0
1 0 0 0 1 2 4 6 7 7 7 7 6 6 5 3 2 1 1 2 3 3 3 3 3 2 1 0 0 0 0 0 0 0 0 0 0 0 0 0 0 0 0
0 0 0 1 2 3 4 5 5 6 8 9 8 7 6 5 3 2 2 3 3 3 3 3 3 2 1 0 0 0 0 0 0 0 0 0 0 0 0 0 0 0 0
Wind_Speed
6 8 10 10 10 10 11 11 11 11 12 12 12 12 12 12 13 13 12 12 12 12 12 12 12 11 10 10 10 10 9 9 9 8 8 8 8 8 7 6 6 5 8
8 9 10 10 10 10 11 11 11 12 12 12 12 12 12 12 12 12 12 12 12 12 11 11 11 11 10 9 9 9 9 7 7 7 7 7 7 7 7 7 7 5 8
9 9 9 10 10 10 10 11 11 12 12 12 12 11 12 12 12 12 11 11 11 11 11 10 10 10 9 9 8 8 8 6 5 4 3 3 5 7 7 7 8 7 7
10 9 9 10 10 10 10 11 12 12 12 12 11 12 12 12 11 11 11 11 11 10 10 9 9 8 8 7 7 7 7 7 6 5 3 3 4 8 7 7 7 7 6
10 10 9 10 10 10 11 12 12 12 12 12 11 11 11 11 11 11 11 10 10 10 10 9 8 8 7 6 7 7 6 6 6 4 4 5 5 8 8 7 7 7 6
10 10 9 9 10 10 11 11 11 12 12 11 11 11 11 11 11 10 10 10 10 10 10 9 9 9 8 7 7 6 6 6 5 4 4 5 4 7 8 8 8 7 7
9 9 9 10 10 10 11 11 11 11 11 11 10 10 10 10 10 10 10 10 10 9 9 9 9 9 9 8 7 7 7 6 3 4 4 5 5 8 8 8 8 7 7
9 9 9 10 10 10 11 11 10 10 10 9 9 9 9 9 9 9 9 9 9 9 9 8 8 8 8 8 7 7 7 6 4 5 5 5 7 7 7 7 7 7 7
8 8 8 8 8 9 10 10 10 9 8 8 7 7 7 7 8 9 9 9 9 9 9 8 8 8 7 6 6 6 6 7 4 3 6 4 7 8 7 7 7 7 7
6 7 7 7 7 6 6 9 8 8 7 5 5 4 4 5 6 8 8 7 7 7 7 7 7 6 5 5 4 5 5 5 3 5 4 5 8 8 8 7 7 7 6
5 5 6 6 6 6 6 7 6 6 4 4 3 2 1 2 3 4 6 7 6 6 6 5 5 4 3 3 3 4 3 2 4 4 4 7 8 8 8 7 7 7 6
5 5 5 5 5 5 5 5 3 3 2 1 1 2 1 2 3 4 5 5 5 5 4 3 2 2 1 1 2 2 2 3 4 4 5 9 9 8 8 7 7 7 7
6 5 5 4 5 5 3 2 2 1 1 1 2 3 3 2 2 2 2 2 2 2 1 1 1 1 1 2 2 2 3 3 3 4 5 9 9 9 8 7 7 7 6
6 5 5 4 4 4 4 2 2 2 1 2 2 2 2 1 2 1 1 1 1 1 1 1 1 2 3 3 3 3 4 3 3 3 4 9 9 9 8 8 7 7 8
7 6 5 4 5 4 3 1 3 2 1 2 1 1 3 2 2 1 2 1 1 1 1 2 2 3 3 4 4 4 4 4 4 4 3 8 9 9 8 8 7 7 7
7 6 5 5 5 4 3 2 3 2 1 2 1 2 3 2 2 2 2 2 2 1 2 2 3 3 3 3 4 4 4 3 3 3 3 4 7 8 8 8 8 7 7
7 7 6 5 5 4 4 3 3 2 3 2 2 2 3 2 2 3 2 2 2 2 3 3 3 3 2 3 4 4 3 3 3 3 3 3 3 5 7 8 8 7 7
6 7 6 4 5 5 4 3 2 2 3 2 2 2 3 3 4 3 2 2 2 2 2 2 2 2 3 3 3 2 2 2 3 3 2 2 2 2 4 6 7 7 7
6 7 6 4 5 5 4 3 2 2 2 2 2 2 3 3 4 3 2 2 2 2 2 2 3 2 2 2 2 1 1 2 2 2 2 2 2 2 2 4 5 6 6
5 7 7 5 4 5 3 3 2 2 2 2 2 2 3 3 3 3 2 2 3 2 2 2 2 2 1 1 1 2 1 1 1 2 2 2 2 3 3 3 2 3 6
5 6 6 6 5 4 2 2 2 2 1 2 2 3 3 3 3 2 2 2 2 2 2 2 2 2 2 1 1 2 1 1 2 1 1 2 3 3 3 3 2 2 2
5 5 6 6 5 4 3 2 2 2 2 2 1 2 2 2 3 2 2 2 2 2 2 2 2 1 1 2 1 1 1 2 3 2 1 1 2 2 3 3 3 3 3
6 5 5 6 6 5 3 2 2 2 2 1 1 1 1 2 2 2 2 2 2 2 1 1 1 1 0 2 1 1 1 0 1 1 1 2 2 2 2 2 3 3 3
6 5 5 5 5 5 4 3 4 3 2 2 2 1 1 2 2 2 2 2 2 2 1 0 1 1 1 1 2 1 1 1 1 1 2 2 2 2 2 2 3 2 3
6 5 4 5 5 4 4 4 4 2 2 2 2 2 2 1 1 2 1 1 1 1 1 0 1 1 1 1 1 1 2 1 1 1 1 1 2 1 1 1 2 2 2
5 5 5 5 4 4 4 4 4 4 3 3 2 2 1 1 1 2 2 1 1 1 1 0 1 1 1 1 1 1 0 0 1 0 0 0 1 1 1 1 1 1 2
Wind_Direction
78 79 68 61 59 61 59 61 61 62 66 67 66 64 62 61 63 64 66 70 71 69 70 70 66 66 66 67 68 69 71 75 79 83 85 84 80 76 71 73 83 82 83
89 85 74 66 63 64 63 62 63 65 68 68 68 67 65 63 65 65 64 67 69 70 71 71 68 65 64 66 65 64 65 69 73 79 87 85 81 78 74 75 79 83 83
91 91 79 67 66 67 67 66 67 68 68 68 68 68 67 66 66 66 65 67 70 72 71 69 67 63 63 64 63 60 55 54 59 61 81 96 87 80 80 79 83 86 85
91 86 79 71 68 69 69 69 69 69 68 67 68 69 68 68 67 68 68 68 69 70 71 71 68 65 67 65 60 54 45 38 34 22 49 77 86 85 80 79 81 84 83
91 89 85 77 74 73 71 71 72 70 70 69 68 69 69 69 70 69 68 68 69 68 68 69 65 64 69 70 61 50 40 33 21 28 64 71 71 83 82 78 77 80 80
97 97 95 87 83 80 76 74 73 72 70 70 70 69 69 68 69 69 67 66 67 65 65 64 61 60 66 72 62 47 35 28 15 50 68 76 75 82 81 76 75 77 78
105 106 104 100 95 90 84 80 78 75 72 70 70 68 69 69 69 69 68 65 64 64 64 64 63 60 65 68 59 41 29 18 28 57 69 73 75 77 77 74 75 76 78
110 112 112 109 104 98 91 84 82 80 76 73 72 70 72 73 72 69 68 67 64 63 64 64 65 64 62 59 51 36 21 11 39 66 78 74 78 78 77 77 77 78 80
117 121 125 124 112 107 100 91 87 86 83 82 81 76 74 78 77 75 71 67 67 67 66 65 66 66 64 58 49 37 24 15 16 47 76 72 74 76 77 76 76 78 80
118 121 125 127 125 120 110 102 101 101 95 95 97 90 88 91 85 81 78 73 72 71 70 71 70 69 64 55 41 32 22 14 41 58 63 66 70 73 75 75 76 77 77
117 119 123 125 126 125 123 117 121 119 116 116 123 122 108 96 100 94 86 88 85 82 76 74 72 73 70 60 39 25 14 42 67 70 61 64 71 75 75 75 77 77 77
135 124 112 115 117 115 114 128 139 122 140 152 113 97 74 69 76 85 102 95 95 91 82 71 61 32 15 61 53 34 28 51 63 78 67 67 69 74 76 74 73 76 77
131 122 118 114 114 111 102 107 97 85 83 55 64 81 75 70 83 86 101 107 107 108 83 83 59 21 40 60 47 43 52 57 61 70 71 73 72 74 75 75 76 77 77
128 120 121 120 110 103 104 100 100 93 72 54 29 71 77 73 71 78 91 80 82 61 52 33 32 44 38 48 55 51 51 59 69 77 75 77 76 74 72 71 76 78 75
129 133 124 120 109 102 98 106 91 73 84 89 24 51 86 79 82 65 76 69 62 57 45 34 38 35 37 38 45 58 52 58 70 74 75 78 76 72 70 67 74 79 79
145 138 130 129 121 129 127 112 102 108 89 76 46 42 74 72 72 70 64 52 44 47 44 52 55 45 37 40 41 46 47 49 69 79 89 83 80 74 67 64 72 79 81
141 135 132 136 132 119 105 94 95 87 76 66 38 36 61 66 73 73 69 54 31 41 45 43 52 50 50 46 41 37 42 38 55 64 75 88 86 75 72 67 68 71 75
136 133 135 135 123 112 106 93 75 74 77 69 52 28 39 51 58 62 62 54 47 46 40 40 48 46 44 40 37 24 39 31 40 57 68 78 93 95 78 73 69 70 72
140 137 140 140 130 118 111 106 93 83 79 71 61 44 34 46 54 61 52 49 60 60 44 45 47 46 52 41 27 13 40 48 34 44 47 65 83 93 101 92 79 73 76
146 144 143 137 130 121 119 113 98 83 74 65 59 52 42 41 54 54 51 52 60 60 45 54 57 40 50 25 14 30 36 61 54 45 28 40 60 73 76 88 93 79 80
147 145 140 140 138 127 124 120 122 118 98 76 67 59 46 41 56 65 47 53 54 67 66 64 65 50 25 27 40 14 1 33 64 59 42 38 48 54 61 67 72 80 82
155 156 152 150 143 136 135 132 132 127 120 103 86 71 58 48 43 53 59 66 57 56 57 58 67 50 8 5 38 49 21 10 5 25 52 54 52 42 41 54 62 70 78
160 167 158 149 141 138 138 123 115 97 95 99 95 74 61 62 56 45 44 53 70 70 56 41 67 71 30 341 9 75 92 86 320 340 11 49 46 51 43 42 56 59 76
161 162 158 151 151 152 147 140 143 149 156 155 143 133 114 84 76 59 45 52 73 86 84 22 83 68 72 348 335 359 40 113 133 331 333 16 39 48 44 40 53 48 68
158 158 159 153 151 148 151 150 158 154 148 136 130 135 132 117 114 109 83 68 80 92 112 133 94 74 68 64 6 354 8 4 32 118 304 343 357 8 47 52 69 54 64
152 157 160 151 149 149 152 158 166 156 154 142 143 146 151 151 145 129 121 115 122 119 129 124 115 98 49 31 18 29 57 10 326 40 132 311 324 333 356 52 74 69 74